Flag for U.S.A. Weather past 2 weeks in Hereford, Texas, U.S.A.

Now
53 °F

Passing clouds.


Feels Like: 51 °F
Forecast: 52 / 73 °F
Wind: 8 mph from South

Location: Amarillo International Airport

Current Time: Oct 21, 2014 at 8:06:49 AM

Latest Report: Oct 21, 2014 at 6:53 AM


Visibility: 8 mi

Pressure: 30.02 "Hg

Humidity: 89%

Dew point: 50 °F

Location of HerefordLocation

Historic Weather in Hereford — Graph

°F

Hereford temperature yesterday

Maximum temperature yesterday: 77 °F (at 2:53 PM)
Minimum temperature yesterday: 54 °F (at 7:53 AM)
Average temperature yesterday: 64 °F

Past Weeks' High & Low Weather Summary

 TemperatureHumidityPressure
High87 °F (Oct 8, 3:53 PM)100% (Oct 11, 4:53 AM)30.23 "Hg (Oct 11, 4:53 AM)
Low42 °F (Oct 14, 2:53 AM)16% (Oct 7, 3:53 PM)29.42 "Hg (Oct 12, 5:53 PM)
Average61 °F59%29.94 "Hg
* Reported Oct 6 6:53 AM — Oct 21 6:53 AM, Hereford, Weather by CustomWeather, © 2014

Note: Actual official high and low records may vary slightly from our data, if they occured in-between our weather recording intervals... More about our weather records

Advertising

Hereford weather history for previous 24 hours

 ConditionsComfort  
Time TempWeatherWind HumidityBarometerVisibility
6:53 AM
Oct 21
53 °FPassing clouds.8 mph89%30.02 "Hg8 mi
5:53 AM53 °FPassing clouds.7 mph89%30.00 "Hg9 mi
4:53 AM53 °FPassing clouds.7 mph89%30.00 "Hg10 mi
3:53 AM54 °FClear.8 mph90%29.99 "Hg10 mi
2:53 AM56 °FClear.8 mph84%30.00 "Hg10 mi
1:53 AM58 °FClear.9 mph81%30.00 "Hg10 mi
12:53 AM57 °FClear.7 mph81%29.99 "Hg10 mi
11:53 PM
Oct 20
58 °FPassing clouds.6 mph78%30.01 "Hg10 mi
10:53 PM63 °FPassing clouds.3 mph68%30.01 "Hg10 mi
9:53 PM62 °FPassing clouds.3 mph70%30.02 "Hg10 mi
8:53 PM66 °FPassing clouds.3 mph65%30.01 "Hg10 mi
7:53 PM68 °FSunny.No wind55%29.99 "Hg10 mi
6:53 PM70 °FSunny.7 mph53%29.97 "Hg10 mi
5:53 PM77 °FSunny.6 mph42%29.95 "Hg10 mi
4:53 PM76 °FPartly sunny.5 mph43%29.95 "Hg10 mi
3:53 PM77 °FPassing clouds.5 mph40%29.96 "Hg10 mi
2:53 PM77 °FSunny.6 mph42%29.97 "Hg10 mi
1:53 PM74 °FSunny.No wind46%30.00 "Hg10 mi
12:53 PM74 °FSunny.8 mph48%30.02 "Hg10 mi
11:53 AM70 °FSunny.3 mph55%30.03 "Hg10 mi
10:53 AM68 °FSunny.7 mph59%30.03 "Hg10 mi
9:53 AM62 °FSunny.9 mph80%30.04 "Hg10 mi
8:53 AM58 °FFog.3 mph90%30.03 "Hg6 mi
Weather by CustomWeather, © 2014

See weather overviewHow to use our weather pages